| time (UTC) | temp F | wind direction | speed MPH | gust MPH | rain 1hr in | rain 24hr in | rain mn in | humidity % | barometer mb |
| 20260904054503 | 55 | 271 | 5.0 | 12.0 | 0.00 | 0.23 | 0.05 | 92 | 1013.1 |
| 20260904053603 | 56 | 266 | 5.0 | 10.0 | 0.00 | 0.23 | 0.05 | 92 | 1013.3 |
| 20260904052703 | 56 | 261 | 4.0 | 10.0 | 0.00 | 0.23 | 0.05 | 92 | 1013.2 |
| 20260904051803 | 56 | 256 | 4.0 | 8.0 | 0.00 | 0.23 | 0.05 | 92 | 1013.0 |
| 20260904050903 | 56 | 260 | 3.0 | 8.0 | 0.00 | 0.23 | 0.05 | 92 | 1013.1 |
| 20260904050003 | 56 | 267 | 4.0 | 11.0 | 0.00 | 0.23 | 0.05 | 92 | 1012.9 |
| 20260904045403 | 57 | 267 | 3.0 | 11.0 | 0.00 | 0.23 | 0.05 | 92 | 1012.8 |
| 20260904044503 | 57 | 269 | 3.0 | 6.0 | 0.00 | 0.23 | 0.05 | 92 | 1013.0 |
| 20260904043603 | 57 | 265 | 3.0 | 7.0 | 0.00 | 0.23 | 0.05 | 92 | 1012.8 |
| 20260904042703 | 57 | 267 | 3.0 | 6.0 | 0.00 | 0.23 | 0.05 | 92 | 1012.6 |
| 20260904041803 | 58 | 273 | 3.0 | 7.0 | 0.00 | 0.23 | 0.05 | 92 | 1012.7 |
| 20260904040903 | 58 | 269 | 3.0 | 9.0 | 0.00 | 0.23 | 0.05 | 92 | 1012.4 |
| 20260904040003 | 58 | 263 | 4.0 | 10.0 | 0.00 | 0.23 | 0.05 | 92 | 1012.3 |
| 20260904035403 | 58 | 265 | 3.0 | 10.0 | 0.00 | 0.23 | 0.05 | 92 | 1012.1 |
| 20260904034503 | 58 | 270 | 3.0 | 8.0 | 0.00 | 0.23 | 0.05 | 92 | 1012.3 |
| 20260904033603 | 59 | 266 | 2.0 | 6.0 | 0.00 | 0.23 | 0.05 | 92 | 1012.4 |
| 20260904032703 | 59 | 271 | 2.0 | 7.0 | 0.00 | 0.23 | 0.05 | 92 | 1012.3 |
| 20260904031803 | 59 | 268 | 3.0 | 8.0 | 0.00 | 0.23 | 0.05 | 92 | 1012.2 |
| 20260904030903 | 59 | 259 | 3.0 | 7.0 | 0.00 | 0.23 | 0.05 | 93 | 1012.1 |
| 20260904030003 | 59 | 262 | 4.0 | 9.0 | 0.00 | 0.23 | 0.05 | 93 | 1011.9 |
| 20260904025403 | 59 | 258 | 4.0 | 9.0 | 0.00 | 0.23 | 0.05 | 93 | 1012.2 |
| 20260904024503 | 59 | 259 | 4.0 | 9.0 | 0.01 | 0.23 | 0.05 | 93 | 1012.0 |
| 20260904023603 | 59 | 255 | 4.0 | 9.0 | 0.02 | 0.23 | 0.05 | 93 | 1011.9 |
| 20260904022703 | 59 | 251 | 4.0 | 9.0 | 0.02 | 0.23 | 0.05 | 92 | 1012.1 |
| 20260904021803 | 59 | 254 | 4.0 | 9.0 | 0.02 | 0.23 | 0.05 | 93 | 1012.2 |
| 20260904020903 | 59 | 256 | 4.0 | 8.0 | 0.03 | 0.23 | 0.05 | 92 | 1012.0 |
| 20260904020003 | 59 | 259 | 4.0 | 8.0 | 0.04 | 0.23 | 0.05 | 92 | 1012.0 |
| 20260904015403 | 59 | 258 | 4.0 | 10.0 | 0.04 | 0.23 | 0.05 | 92 | 1012.1 |
| 20260904014503 | 59 | 262 | 3.0 | 7.0 | 0.03 | 0.22 | 0.04 | 92 | 1012.1 |
| 20260904013603 | 59 | 259 | 4.0 | 10.0 | 0.02 | 0.21 | 0.03 | 92 | 1012.0 |
| 20260904012703 | 59 | 260 | 3.0 | 7.0 | 0.02 | 0.21 | 0.03 | 92 | 1011.6 |
| 20260904011803 | 59 | 264 | 3.0 | 7.0 | 0.02 | 0.20 | 0.02 | 92 | 1011.5 |
| 20260904010903 | 59 | 262 | 4.0 | 8.0 | 0.02 | 0.20 | 0.02 | 92 | 1011.6 |
| 20260904010003 | 59 | 259 | 4.0 | 9.0 | 0.01 | 0.19 | 0.01 | 92 | 1011.8 |
| 20260904005403 | 59 | 255 | 4.0 | 9.0 | 0.01 | 0.19 | 0.01 | 92 | 1011.5 |
| 20260904004503 | 59 | 264 | 3.0 | 7.0 | 0.01 | 0.19 | 0.01 | 92 | 1011.6 |
| 20260904003603 | 59 | 264 | 3.0 | 6.0 | 0.01 | 0.19 | 0.01 | 92 | 1011.4 |
| 20260904002703 | 59 | 273 | 3.0 | 8.0 | 0.01 | 0.19 | 0.01 | 92 | 1011.7 |
| 20260904001803 | 59 | 267 | 3.0 | 6.0 | 0.00 | 0.18 | 0.00 | 92 | 1011.5 |
| 20260904000903 | 59 | 264 | 2.0 | 6.0 | 0.00 | 0.18 | 0.00 | 92 | 1011.5 |
| 20260904000003 | 59 | 285 | 1.0 | 4.0 | 0.00 | 0.18 | 0.00 | 92 | 1011.4 |
| 20260903235403 | 59 | 288 | 1.0 | 3.0 | 0.00 | 0.18 | 0.00 | 92 | 1011.4 |
| 20260903234503 | 59 | 268 | 1.0 | 4.0 | 0.00 | 0.18 | 0.00 | 92 | 1011.2 |
| 20260903233603 | 59 | 265 | 1.0 | 2.0 | 0.00 | 0.18 | 0.00 | 92 | 1011.1 |
| 20260903232703 | 59 | 265 | 1.0 | 3.0 | 0.00 | 0.18 | 0.00 | 92 | 1011.0 |
| 20260903231803 | 59 | 262 | 1.0 | 3.0 | 0.00 | 0.18 | 0.00 | 92 | 1011.0 |
| 20260903230903 | 59 | 256 | 1.0 | 3.0 | 0.00 | 0.18 | 0.00 | 92 | 1010.7 |
| 20260903230003 | 59 | 279 | 1.0 | 4.0 | 0.00 | 0.18 | 0.00 | 92 | 1010.6 |
| 20260903225403 | 59 | 339 | 1.0 | 6.0 | 0.00 | 0.18 | 0.18 | 92 | 1010.6 |
| 20260903224503 | 59 | 335 | 5.0 | 8.0 | 0.00 | 0.18 | 0.18 | 92 | 1010.6 |
| 20260903223603 | 59 | 337 | 6.0 | 11.0 | 0.00 | 0.18 | 0.18 | 91 | 1010.5 |
| 20260903222703 | 59 | 335 | 7.0 | 10.0 | 0.02 | 0.18 | 0.18 | 91 | 1010.2 |
| 20260903221803 | 59 | 339 | 8.0 | 13.0 | 0.02 | 0.18 | 0.18 | 91 | 1010.2 |
| 20260903220903 | 59 | 338 | 10.0 | 13.0 | 0.02 | 0.18 | 0.18 | 91 | 1010.2 |
| 20260903220003 | 60 | 339 | 10.0 | 15.0 | 0.02 | 0.18 | 0.18 | 91 | 1010.1 |
| 20260903215403 | 60 | 337 | 11.0 | 15.0 | 0.02 | 0.18 | 0.18 | 91 | 1010.2 |
| 20260903214503 | 61 | 337 | 11.0 | 16.0 | 0.02 | 0.18 | 0.18 | 90 | 1009.8 |
| 20260903213603 | 62 | 336 | 9.0 | 16.0 | 0.02 | 0.18 | 0.18 | 90 | 1009.8 |
| 20260903212703 | 66 | 256 | 7.0 | 17.0 | 0.00 | 0.16 | 0.16 | 91 | 1009.8 |
| 20260903211803 | 66 | 244 | 10.0 | 22.0 | 0.01 | 0.16 | 0.16 | 91 | 1009.3 |
| 20260903210903 | 66 | 241 | 11.0 | 25.0 | 0.02 | 0.16 | 0.16 | 91 | 1009.3 |
| 20260903210003 | 66 | 242 | 9.0 | 20.0 | 0.02 | 0.16 | 0.16 | 92 | 1009.4 |
| 20260903205403 | 66 | 241 | 9.0 | 20.0 | 0.03 | 0.16 | 0.16 | 91 | 1009.5 |
| 20260903204503 | 66 | 240 | 10.0 | 21.0 | 0.06 | 0.16 | 0.16 | 91 | 1009.5 |
| 20260903203603 | 66 | 235 | 12.0 | 25.0 | 0.08 | 0.16 | 0.16 | 91 | 1009.4 |
| 20260903202703 | 65 | 235 | 10.0 | 23.0 | 0.09 | 0.16 | 0.16 | 91 | 1009.4 |
| 20260903201803 | 65 | 227 | 8.0 | 21.0 | 0.10 | 0.15 | 0.15 | 91 | 1009.6 |
| 20260903200903 | 65 | 207 | 7.0 | 20.0 | 0.10 | 0.14 | 0.14 | 91 | 1009.5 |
| 20260903200003 | 64 | 189 | 7.0 | 15.0 | 0.12 | 0.14 | 0.14 | 91 | 1009.7 |
| 20260903195403 | 64 | 182 | 7.0 | 13.0 | 0.12 | 0.13 | 0.13 | 91 | 1009.9 |
| 20260903194503 | 63 | 172 | 8.0 | 12.0 | 0.09 | 0.10 | 0.10 | 90 | 1010.1 |
| 20260903193603 | 63 | 171 | 7.0 | 11.0 | 0.08 | 0.08 | 0.08 | 90 | 1010.4 |
| 20260903192703 | 63 | 172 | 7.0 | 10.0 | 0.06 | 0.06 | 0.06 | 89 | 1010.7 |
| 20260903191803 | 63 | 178 | 6.0 | 11.0 | 0.05 | 0.05 | 0.05 | 88 | 1011.0 |
| 20260903190903 | 63 | 180 | 5.0 | 8.0 | 0.04 | 0.04 | 0.04 | 88 | 1011.1 |
| 20260903190003 | 63 | 188 | 4.0 | 10.0 | 0.02 | 0.02 | 0.02 | 86 | 1011.4 |
| 20260903185403 | 64 | 205 | 3.0 | 6.0 | 0.01 | 0.01 | 0.01 | 86 | 1011.6 |
| 20260903184503 | 64 | 207 | 3.0 | 6.0 | 0.01 | 0.01 | 0.01 | 85 | 1011.9 |
| 20260903183603 | 64 | 181 | 5.0 | 9.0 | 0.00 | 0.00 | 0.00 | 84 | 1012.0 |
| 20260903182703 | 64 | 195 | 5.0 | 9.0 | 0.00 | 0.00 | 0.00 | 83 | 1012.3 |
| 20260903181803 | 64 | 224 | 4.0 | 10.0 | 0.00 | 0.00 | 0.00 | 82 | 1012.5 |
| 20260903180903 | 65 | 237 | 3.0 | 7.0 | 0.00 | 0.00 | 0.00 | 82 | 1012.8 |
| 20260903180003 | 65 | 240 | 5.0 | 12.0 | 0.00 | 0.00 | 0.00 | 81 | 1013.1 |
| 20260903175403 | 65 | 242 | 5.0 | 13.0 | 0.00 | 0.00 | 0.00 | 81 | 1013.3 |
| 20260903174503 | 65 | 243 | 5.0 | 13.0 | 0.00 | 0.00 | 0.00 | 80 | 1013.4 |
| 20260903173603 | 65 | 237 | 5.0 | 10.0 | 0.00 | 0.00 | 0.00 | 79 | 1013.4 |
| 20260903172703 | 65 | 229 | 6.0 | 16.0 | 0.00 | 0.00 | 0.00 | 79 | 1013.7 |
| 20260903171803 | 66 | 230 | 5.0 | 15.0 | 0.00 | 0.00 | 0.00 | 79 | 1013.7 |
| 20260903170903 | 66 | 232 | 5.0 | 13.0 | 0.00 | 0.00 | 0.00 | 78 | 1013.7 |
| 20260903170003 | 66 | 238 | 7.0 | 20.0 | 0.00 | 0.00 | 0.00 | 78 | 1013.8 |
| 20260903165403 | 66 | 233 | 7.0 | 20.0 | 0.00 | 0.00 | 0.00 | 77 | 1014.1 |
| 20260903164503 | 66 | 224 | 6.0 | 15.0 | 0.00 | 0.00 | 0.00 | 76 | 1013.9 |
| 20260903163603 | 67 | 228 | 6.0 | 16.0 | 0.00 | 0.00 | 0.00 | 76 | 1014.0 |
| 20260903162703 | 67 | 220 | 6.0 | 15.0 | 0.00 | 0.00 | 0.00 | 76 | 1014.1 |
| 20260903161803 | 67 | 231 | 6.0 | 13.0 | 0.00 | 0.00 | 0.00 | 75 | 1014.1 |
| 20260903160903 | 68 | 227 | 6.0 | 14.0 | 0.00 | 0.00 | 0.00 | 74 | 1013.9 |
| 20260903160003 | 68 | 244 | 8.0 | 15.0 | 0.00 | 0.00 | 0.00 | 73 | 1014.2 |
| 20260903155403 | 68 | 239 | 8.0 | 15.0 | 0.00 | 0.00 | 0.00 | 73 | 1014.4 |
| 20260903154503 | 68 | 230 | 7.0 | 17.0 | 0.00 | 0.00 | 0.00 | 73 | 1014.1 |
| 20260903153603 | 69 | 236 | 7.0 | 16.0 | 0.00 | 0.00 | 0.00 | 73 | 1014.3 |
| 20260903152703 | 69 | 236 | 8.0 | 17.0 | 0.00 | 0.00 | 0.00 | 73 | 1014.4 |
| 20260903151803 | 69 | 237 | 8.0 | 19.0 | 0.00 | 0.00 | 0.00 | 73 | 1014.4 |
| 20260903150903 | 69 | 235 | 7.0 | 19.0 | 0.00 | 0.00 | 0.00 | 73 | 1014.6 |
| 20260903150003 | 69 | 239 | 7.0 | 16.0 | 0.00 | 0.00 | 0.00 | 72 | 1014.8 |
| 20260903145403 | 69 | 247 | 8.0 | 18.0 | 0.00 | 0.00 | 0.00 | 71 | 1014.9 |
| 20260903144503 | 70 | 246 | 9.0 | 17.0 | 0.00 | 0.00 | 0.00 | 70 | 1015.1 |
| 20260903143603 | 70 | 246 | 8.0 | 18.0 | 0.00 | 0.00 | 0.00 | 70 | 1015.2 |
| 20260903142703 | 70 | 248 | 7.0 | 17.0 | 0.00 | 0.00 | 0.00 | 71 | 1015.1 |
| 20260903141803 | 70 | 248 | 7.0 | 13.0 | 0.00 | 0.00 | 0.00 | 72 | 1015.2 |
| 20260903140903 | 70 | 251 | 7.0 | 15.0 | 0.00 | 0.00 | 0.00 | 73 | 1015.1 |
| 20260903140003 | 70 | 248 | 7.0 | 17.0 | 0.00 | 0.00 | 0.00 | 73 | 1015.2 |
| 20260903135403 | 69 | 247 | 9.0 | 17.0 | 0.00 | 0.00 | 0.00 | 74 | 1015.2 |
| 20260903134503 | 69 | 243 | 8.0 | 18.0 | 0.00 | 0.00 | 0.00 | 73 | 1015.3 |
| 20260903133603 | 70 | 239 | 8.0 | 18.0 | 0.00 | 0.00 | 0.00 | 74 | 1015.3 |
| 20260903132703 | 69 | 244 | 7.0 | 16.0 | 0.00 | 0.00 | 0.00 | 74 | 1015.5 |
| 20260903131803 | 70 | 245 | 8.0 | 16.0 | 0.00 | 0.00 | 0.00 | 73 | 1015.5 |
| 20260903130903 | 70 | 243 | 7.0 | 15.0 | 0.00 | 0.00 | 0.00 | 72 | 1015.3 |
| 20260903130003 | 70 | 242 | 6.0 | 14.0 | 0.00 | 0.00 | 0.00 | 72 | 1015.1 |
| 20260903125403 | 70 | 248 | 8.0 | 19.0 | 0.00 | 0.00 | 0.00 | 70 | 1015.1 |
| 20260903124503 | 70 | 243 | 9.0 | 19.0 | 0.00 | 0.00 | 0.00 | 70 | 1015.2 |
| 20260903123603 | 70 | 237 | 8.0 | 19.0 | 0.00 | 0.00 | 0.00 | 71 | 1015.1 |
| 20260903122703 | 70 | 236 | 7.0 | 16.0 | 0.00 | 0.00 | 0.00 | 72 | 1015.1 |
| 20260903121803 | 70 | 222 | 6.0 | 14.0 | 0.00 | 0.00 | 0.00 | 74 | 1015.2 |
| 20260903120903 | 71 | 233 | 7.0 | 16.0 | 0.00 | 0.00 | 0.00 | 73 | 1015.5 |
| 20260903120003 | 71 | 234 | 6.0 | 16.0 | 0.00 | 0.00 | 0.00 | 72 | 1015.5 |
| 20260903115403 | 71 | 238 | 6.0 | 13.0 | 0.00 | 0.00 | 0.00 | 71 | 1015.5 |
| 20260903114503 | 72 | 225 | 7.0 | 14.0 | 0.00 | 0.00 | 0.00 | 71 | 1015.5 |
| 20260903113603 | 72 | 231 | 7.0 | 18.0 | 0.00 | 0.00 | 0.00 | 72 | 1015.6 |
| 20260903112703 | 72 | 226 | 6.0 | 13.0 | 0.00 | 0.00 | 0.00 | 72 | 1015.7 |
| 20260903111803 | 72 | 233 | 7.0 | 17.0 | 0.00 | 0.00 | 0.00 | 74 | 1015.7 |
| 20260903110903 | 71 | 233 | 7.0 | 15.0 | 0.00 | 0.00 | 0.00 | 75 | 1015.7 |
| 20260903110003 | 70 | 233 | 6.0 | 13.0 | 0.00 | 0.00 | 0.00 | 76 | 1015.7 |
| 20260903105403 | 70 | 235 | 6.0 | 13.0 | 0.00 | 0.00 | 0.00 | 77 | 1015.8 |
| 20260903104503 | 70 | 229 | 7.0 | 18.0 | 0.00 | 0.00 | 0.00 | 78 | 1015.6 |
| 20260903103603 | 69 | 240 | 7.0 | 18.0 | 0.00 | 0.00 | 0.00 | 78 | 1015.7 |
| 20260903102703 | 69 | 237 | 6.0 | 19.0 | 0.00 | 0.00 | 0.00 | 80 | 1015.7 |
| 20260903101803 | 68 | 238 | 7.0 | 14.0 | 0.00 | 0.00 | 0.00 | 82 | 1015.8 |
| 20260903100903 | 68 | 227 | 5.0 | 14.0 | 0.00 | 0.00 | 0.00 | 83 | 1015.6 |
| 20260903100003 | 67 | 231 | 4.0 | 13.0 | 0.00 | 0.00 | 0.00 | 83 | 1015.6 |
| 20260903095403 | 67 | 237 | 5.0 | 13.0 | 0.00 | 0.00 | 0.00 | 84 | 1015.6 |
| 20260903094503 | 67 | 234 | 5.0 | 14.0 | 0.00 | 0.00 | 0.00 | 84 | 1015.8 |
| 20260903093603 | 66 | 226 | 5.0 | 12.0 | 0.00 | 0.00 | 0.00 | 84 | 1015.6 |
| 20260903092703 | 67 | 228 | 5.0 | 15.0 | 0.00 | 0.00 | 0.00 | 85 | 1015.6 |
| 20260903091803 | 66 | 220 | 4.0 | 10.0 | 0.00 | 0.00 | 0.00 | 86 | 1015.6 |
| 20260903090903 | 66 | 228 | 4.0 | 9.0 | 0.00 | 0.00 | 0.00 | 86 | 1015.8 |
| 20260903090003 | 66 | 235 | 5.0 | 12.0 | 0.00 | 0.00 | 0.00 | 87 | 1015.9 |
| 20260903085403 | 66 | 239 | 6.0 | 13.0 | 0.00 | 0.00 | 0.00 | 87 | 1016.0 |
| 20260903084503 | 66 | 235 | 5.0 | 15.0 | 0.00 | 0.00 | 0.00 | 88 | 1016.2 |
| 20260903083603 | 65 | 229 | 4.0 | 14.0 | 0.00 | 0.00 | 0.00 | 89 | 1016.1 |
| 20260903082703 | 64 | 236 | 5.0 | 10.0 | 0.00 | 0.00 | 0.00 | 90 | 1016.3 |
| 20260903081803 | 64 | 235 | 4.0 | 11.0 | 0.00 | 0.00 | 0.00 | 90 | 1016.4 |
| 20260903080903 | 64 | 223 | 3.0 | 8.0 | 0.00 | 0.00 | 0.00 | 90 | 1016.2 |
| 20260903080003 | 63 | 219 | 3.0 | 8.0 | 0.00 | 0.00 | 0.00 | 90 | 1016.0 |
| 20260903075403 | 63 | 219 | 3.0 | 9.0 | 0.00 | 0.00 | 0.00 | 90 | 1015.9 |
| 20260903074503 | 63 | 238 | 3.0 | 7.0 | 0.00 | 0.00 | 0.00 | 91 | 1016.0 |
| 20260903073603 | 63 | 236 | 4.0 | 10.0 | 0.00 | 0.00 | 0.00 | 91 | 1016.0 |
| 20260903072703 | 63 | 235 | 3.0 | 9.0 | 0.00 | 0.00 | 0.00 | 91 | 1016.1 |
| 20260903071803 | 62 | 236 | 3.0 | 10.0 | 0.00 | 0.00 | 0.00 | 91 | 1016.0 |
| 20260903070903 | 62 | 240 | 3.0 | 10.0 | 0.00 | 0.00 | 0.00 | 91 | 1015.8 |
| 20260903070003 | 62 | 238 | 5.0 | 9.0 | 0.00 | 0.00 | 0.00 | 91 | 1015.9 |
| 20260903065403 | 62 | 236 | 5.0 | 10.0 | 0.00 | 0.00 | 0.00 | 91 | 1015.9 |
| 20260903064503 | 62 | 229 | 4.0 | 11.0 | 0.00 | 0.00 | 0.00 | 91 | 1015.7 |
| 20260903063602 | 62 | 213 | 3.0 | 7.0 | 0.00 | 0.00 | 0.00 | 91 | 1015.6 |
| 20260903062702 | 62 | 212 | 3.0 | 10.0 | 0.00 | 0.00 | 0.00 | 91 | 1015.6 |
| 20260903061802 | 62 | 230 | 4.0 | 10.0 | 0.00 | 0.00 | 0.00 | 91 | 1015.5 |
| 20260903060903 | 61 | 233 | 3.0 | 8.0 | 0.00 | 0.00 | 0.00 | 91 | 1015.5 |
| 20260903060003 | 61 | 237 | 3.0 | 9.0 | 0.00 | 0.00 | 0.00 | 91 | 1015.3 |
| 20260903055403 | 61 | 237 | 4.0 | 9.0 | 0.00 | 0.00 | 0.00 | 91 | 1015.4 |